Flag Weather past 2 weeks in Chandler, Arizona, U.S.A.

Now
64 °F

Clear.


Feels Like: 64 °F
Forecast: 67 / 90 °F
Wind: 7 mph from Southeast

Location: Williams Gateway Airport

Current Time: Oct 31, 2014 at 2:29:01 AM

Latest Report: Oct 31, 2014 at 1:55 AM


Visibility: 10 mi

Pressure: 29.95 "Hg

Humidity: 43%

Dew point: 41 °F

Location of ChandlerLocation

Historic Weather in Chandler — Graph

°F

Chandler temperature yesterday

Maximum temperature yesterday: 90 °F (at 3:47 PM)
Minimum temperature yesterday: 57 °F (at 3:55 AM)
Average temperature yesterday: 67 °F

Past Weeks' High & Low Weather Summary

 TemperatureHumidityPressure
High93 °F (Oct 25, 2:47 PM)77% (Oct 20, 5:47 AM)30.10 "Hg (Oct 20, 5:47 AM)
Low55 °F (Oct 29, 3:15 AM)16% (Oct 30, 3:47 PM)28.00 "Hg (Oct 25, 12:47 PM)
Average70 °F51%29.93 "Hg
* Reported Oct 16 1:15 AM — Oct 31 1:15 AM, Chandler, Weather by CustomWeather, © 2014

Note: Actual official high and low records may vary slightly from our data, if they occured in-between our weather recording intervals... More about our weather records

Advertising

Chandler weather history for previous 24 hours

 ConditionsComfort  
Time TempWeatherWind HumidityBarometerVisibility
1:15 AM
Oct 31
64 °FClear.7 mph43%29.95 "Hg10 mi
12:55 AM66 °FClear.7 mph37%29.95 "Hg10 mi
12:15 AM64 °FClear.9 mph40%29.95 "Hg10 mi
11:47 PM
Oct 30
64 °FPassing clouds.No wind43%29.95 "Hg20 mi
10:55 PM66 °FPassing clouds.6 mph40%29.95 "Hg20 mi
9:47 PM72 °FPassing clouds.No wind36%29.96 "Hg20 mi
8:47 PM72 °FPassing clouds.No wind36%29.95 "Hg20 mi
7:47 PM75 °FPassing clouds.No wind31%29.95 "Hg20 mi
6:47 PM79 °FPassing clouds.6 mph28%29.94 "Hg20 mi
5:47 PM84 °FPassing clouds.6 mph22%29.93 "Hg20 mi
3:47 PM90 °FPartly sunny.No wind16%29.94 "Hg45 mi
1:47 PM88 °FPartly sunny.No wind19%29.97 "Hg45 mi
12:47 PM86 °FScattered clouds.No wind22%30.00 "Hg45 mi
11:47 AM82 °FScattered clouds.3 mph25%30.03 "Hg35 mi
10:47 AM82 °FPassing clouds.3 mph28%30.05 "Hg45 mi
8:47 AM70 °FPassing clouds.3 mph38%30.06 "Hg45 mi
7:48 AM63 °FSunny.5 mph45%30.05 "Hg45 mi
6:47 AM57 °FPassing clouds.7 mph51%30.04 "Hg45 mi
5:47 AM57 °FPassing clouds.6 mph51%30.03 "Hg20 mi
4:47 AM61 °FPassing clouds.6 mph45%30.01 "Hg20 mi
4:35 AM61 °FClear.9 mph45%30.01 "Hg10 mi
4:15 AM59 °FClear.8 mph48%30.01 "Hg10 mi
3:55 AM57 °FClear.7 mph51%30.00 "Hg10 mi
3:15 AM59 °FClear.8 mph51%30.00 "Hg10 mi
2:55 AM59 °FClear.5 mph51%30.00 "Hg10 mi
2:35 AM59 °FClear.3 mph55%30.01 "Hg10 mi
2:15 AM59 °FClear.3 mph51%30.01 "Hg10 mi
Weather by CustomWeather, © 2014

See weather overviewHow to use our weather pages